Location: Corralito
(10.2667°N, 66.9500°W)
Time: 18:10:54
(UTC+00:00)

NOAA 6 - Pass Details

Date: 23 March 2023
Orbit: 771 x 784 km, 98.7° (Epoch: 09 June)

Event Time Altitude Azimuth Distance (km) Brightness Sun altitude
Rises 22:46:46 0° 168° (SSE) 3,265 7.1 -2.8°
Reaches altitude 10° 22:49:05 10° 168° (SSE) 2,336 6.4 -3.4°
Maximum altitude 22:54:15 89° 254° (WSW) 786 4.1 -4.7°
Drops below altitude 10° 22:59:24 10° 347° (NNW) 2,330 6.7 -5.9°
Sets 23:01:42 0° 348° (NNW) 3,256 7.5 -6.5°
